Miscellaneous Local Product
Issued by NWS North Platte, NE

Home | Current Version | Previous Version | Text Only | Print | Product List | Glossary On
Versions: 1 2 3 4 5 6 7 8 9 10 11 12 13 14 15 16 17 18 19 20 21 22 23 24 25 26 27 28 29 30 31 32 33 34 35 36 37 38 39 40 41 42 43 44 45 46 47 48 49 50
000
AXUS43 KLBF 221010
MISLBF


WESTERN AND NORTH CENTRAL NEBRASKA HOURLY WEATHER ROUNDUP
NATIONAL WEATHER SERVICE NORTH PLATTE NE
500 AM CDT WED OCT 22 2014

***STATIONS NOT REPORTING VARIABLES SUCH AS SKY/WEATHER OR
PRESSURE ARE PROVIDED BY THE NEBRASKA DEPARTMENT OF
ROADS...RAWS...AND APRS NETWORKS...AND ARE NOT UNDER
NATIONAL WEATHER SERVICE QUALITY CONTROL***

...OBSERVATIONS IN AND NEAR THE EASTERN PANHANDLE OF NEBRASKA...

CITY           SKY/WX    TMP DP  RH WIND       PRES   REMARKS
PINE RIDGE     CLOUDY    58  48  69 W6        29.89S
CHADRON        CLOUDY    57  49  74 SW6       29.89F
ALLIANCE       CLOUDY    56  48  74 W13       29.92R
SIDNEY         CLOUDY    55  45  68 NW10      29.96R
WHITECLAY        N/A     57  47  69 W5          N/A
RUSHVILLE        N/A     59  44  58 NW13        N/A
CRESCENT LAKE    N/A     55  44  66 W6          N/A
LISCO            N/A     56  47  71 W6          N/A
BIG SPRINGS      N/A     53  45  75 CALM        N/A
LEWELLEN         N/A     54  46  73 CALM        N/A
$$

...OBSERVATIONS IN NORTH CENTRAL NEBRASKA...

CITY           SKY/WX    TMP DP  RH WIND       PRES   REMARKS
VALENTINE      MOCLDY    61  52  72 S8        29.85R
THEDFORD       CLOUDY    62  52  70 S12       29.90R
AINSWORTH      MOCLDY    58  53  83 S15       29.87S
O`NEILL        CLEAR     56  50  80 S15       29.92F
ORD            PTCLDY    53  51  93 SE8       29.94S
BROKEN BOW     PTCLDY    57  53  86 SE7       29.93S
BROWNLEE         N/A     61  53  74 S10         N/A
SPRINGVIEW       N/A     60  54  80 MISG        N/A
BREWSTER         N/A     64  57  77 S13         N/A
ROSE             N/A     58  58  97 E10         N/A
NEWPORT          N/A     59  55  88 S10         N/A
SARGENT          N/A     54  52  94 CALM        N/A
COMSTOCK         N/A     60  57  92 S10         N/A
CHAMBERS         N/A     54  49  83 S3G13       N/A
$$

...OBSERVATIONS IN SOUTHWEST NEBRASKA AND FAR NORTHEAST COLORADO...

CITY           SKY/WX    TMP DP  RH WIND       PRES   REMARKS
WRAY           CLOUDY    58  48  69 W6        29.94R
HOLYOKE        FAIR      54  46  76 N3        29.94S
IMPERIAL       MOCLDY    57  46  66 CALM      29.92R
OGALLALA       MOCLDY    51  46  82 CALM      29.92R
NORTH PLATTE   CLOUDY    61  50  67 S10       29.90S
MCCOOK         MOCLDY    59  50  72 S9        29.93S
LEXINGTON      MOCLDY    61  53  74 S14       29.93S
PAXTON           N/A     59  50  72 W3          N/A
SUTHERLAND       N/A     55  48  77 W5          N/A
BRADY            N/A     60  51  72 CALM        N/A
GOTHENBURG       N/A     62  49  63 S12         N/A
CALLAWAY         N/A     56  53  90 S10         N/A
$$

...SOME WEATHER OBSERVATIONS FROM AROUND THE REGION...

CITY           SKY/WX    TMP DP  RH WIND       PRES   REMARKS
DENVER         MOCLDY    49  43  80 N8        30.00R
LARAMIE        CLOUDY    44  35  70 W13       30.07F
CHEYENNE       MOCLDY    48  36  63 CALM      30.02F
SCOTTSBLUFF    CLOUDY    53  52  96 NW5       29.93F
RAPID CITY     CLOUDY    57  37  47 N18       29.87R
PIERRE         MOCLDY    59  53  80 SE10      29.77R
WINNER         FAIR      64  53  67 S23       29.81S
SIOUX FALLS    CLEAR     53  44  71 SE12      30.00S
OMAHA          MOCLDY    55  44  66 SE15      30.10S
GRAND ISLAND   CLEAR     57  53  86 S16G24    29.99S
KANSAS CITY    CLOUDY    55  46  71 SE14      30.14R
WICHITA        CLEAR     60  56  86 S7        30.06R
HAYS           CLEAR     54  46  76 S7        30.01R
LIBERAL        PTCLDY    55  46  71 SE10      30.04S
GOODLAND       MOCLDY    53  47  79 S10       29.95S
$$



USA.gov is the U.S. government's official web portal to all federal, state and local government web resources and services.